| time (UTC) | temp C | wind direction | speed KPH | gust KPH | rain 1hr cm | rain 24hr cm | rain mn cm | humidity % | barometer mb |
| 20260902101557 | 19 | 101 | 0.0 | 9.7 | 0.00 | 0.00 | 0.00 | 100 | 1022.1 |
| 20260902100057 | 19 | 188 | 0.0 | 1.6 | 0.00 | 0.00 | 0.00 | 100 | 1022.0 |
| 20260902094554 | 18 | 188 | 0.0 | 1.6 | 0.00 | 0.00 | 0.00 | 100 | 1021.8 |
| 20260902093050 | 19 | 0 | 0.0 | 1.6 | 0.00 | 0.00 | 0.00 | 100 | 1021.9 |
| 20260902091600 | 19 | 0 | 0.0 | 1.6 | 0.00 | 0.00 | 0.00 | 100 | 1021.7 |
| 20260902090051 | 19 | 188 | 0.0 | 3.2 | 0.00 | 0.00 | 0.00 | 100 | 1021.7 |
| 20260902084555 | 19 | 0 | 0.0 | 3.2 | 0.00 | 0.00 | 0.00 | 100 | 1021.9 |
| 20260902083103 | 19 | 0 | 0.0 | 0.0 | 0.00 | 0.00 | 0.00 | 100 | 1021.8 |
| 20260902081555 | 19 | 0 | 0.0 | 1.6 | 0.00 | 0.00 | 0.00 | 100 | 1021.8 |
| 20260902080107 | 19 | 0 | 0.0 | 1.6 | 0.00 | 0.00 | 0.00 | 100 | 1021.9 |
| 20260902074602 | 19 | 0 | 0.0 | 1.6 | 0.00 | 0.00 | 0.00 | 100 | 1021.6 |
| 20260902073057 | 19 | 0 | 0.0 | 1.6 | 0.00 | 0.00 | 0.00 | 100 | 1021.7 |
| 20260902071550 | 18 | 0 | 0.0 | 1.6 | 0.00 | 0.00 | 0.00 | 100 | 1021.4 |
| 20260902070051 | 18 | 0 | 0.0 | 3.2 | 0.00 | 0.00 | 0.00 | 100 | 1021.4 |
| 20260902064548 | 18 | 0 | 0.0 | 3.2 | 0.00 | 0.00 | 0.00 | 100 | 1021.4 |
| 20260902063059 | 18 | 0 | 0.0 | 0.0 | 0.00 | 0.00 | 0.00 | 100 | 1021.3 |
| 20260902061610 | 18 | 0 | 0.0 | 1.6 | 0.00 | 0.00 | 0.00 | 100 | 1021.4 |
| 20260902060052 | 18 | 0 | 0.0 | 1.6 | 0.00 | 0.00 | 0.00 | 100 | 1021.5 |
| 20260902054559 | 18 | 63 | 0.0 | 1.6 | 0.00 | 0.00 | 0.00 | 100 | 1021.5 |
| 20260902053057 | 18 | 0 | 0.0 | 3.2 | 0.00 | 0.00 | 0.00 | 100 | 1021.3 |
| 20260902051551 | 18 | 67 | 0.0 | 3.2 | 0.00 | 0.00 | 0.00 | 100 | 1021.0 |
| 20260902050051 | 18 | 0 | 0.0 | 1.6 | 0.00 | 0.00 | 0.00 | 100 | 1020.8 |
| 20260902044558 | 18 | 0 | 0.0 | 3.2 | 0.00 | 0.00 | 0.00 | 100 | 1020.5 |
| 20260902043104 | 18 | 0 | 0.0 | 3.2 | 0.00 | 0.00 | 0.00 | 100 | 1020.4 |
| 20260902041551 | 18 | 0 | 0.0 | 3.2 | 0.00 | 0.00 | 0.00 | 99 | 1020.1 |
| 20260902040052 | 18 | 0 | 0.0 | 1.6 | 0.00 | 0.00 | 0.00 | 98 | 1020.0 |
| 20260902034547 | 17 | 0 | 0.0 | 0.0 | 0.00 | 0.00 | 0.00 | 98 | 1020.0 |
| 20260902033107 | 17 | 0 | 0.0 | 0.0 | 0.00 | 0.00 | 0.00 | 97 | 1020.1 |
| 20260902031554 | 17 | 0 | 0.0 | 0.0 | 0.00 | 0.00 | 0.00 | 96 | 1019.9 |
| 20260902030101 | 18 | 0 | 0.0 | 1.6 | 0.00 | 0.00 | 0.00 | 95 | 1019.7 |
| 20260902024559 | 18 | 0 | 0.0 | 1.6 | 0.00 | 0.00 | 0.00 | 94 | 1019.7 |
| 20260902023055 | 18 | 0 | 0.0 | 0.0 | 0.00 | 0.00 | 0.00 | 94 | 1019.7 |
| 20260902021609 | 18 | 0 | 0.0 | 1.6 | 0.00 | 0.00 | 0.00 | 93 | 1019.9 |
| 20260902020100 | 18 | 0 | 0.0 | 1.6 | 0.00 | 0.00 | 0.00 | 92 | 1019.8 |
| 20260902014602 | 18 | 0 | 0.0 | 0.0 | 0.00 | 0.00 | 0.00 | 92 | 1020.1 |
| 20260902013055 | 18 | 0 | 0.0 | 3.2 | 0.00 | 0.00 | 0.00 | 91 | 1020.1 |
| 20260902011603 | 18 | 0 | 0.0 | 1.6 | 0.00 | 0.00 | 0.00 | 91 | 1020.1 |
| 20260902010058 | 18 | 0 | 0.0 | 0.0 | 0.00 | 0.00 | 0.00 | 89 | 1019.9 |
| 20260902004600 | 18 | 0 | 0.0 | 0.0 | 0.00 | 0.00 | 0.00 | 88 | 1019.7 |
| 20260902003054 | 18 | 0 | 0.0 | 3.2 | 0.00 | 0.00 | 0.00 | 87 | 1019.7 |
| 20260902001558 | 18 | 0 | 0.0 | 3.2 | 0.00 | 0.00 | 0.00 | 85 | 1019.2 |
| 20260902000056 | 18 | 0 | 0.0 | 3.2 | 0.00 | 0.00 | 0.00 | 84 | 1019.2 |
| 20260901234608 | 18 | 0 | 0.0 | 4.8 | 0.00 | 0.00 | 0.00 | 83 | 1019.2 |
| 20260901233058 | 18 | 0 | 0.0 | 6.4 | 0.00 | 0.00 | 0.00 | 81 | 1019.3 |
| 20260901231550 | 18 | 0 | 1.6 | 6.4 | 0.00 | 0.00 | 0.00 | 80 | 1019.3 |
| 20260901230048 | 18 | 116 | 1.6 | 6.4 | 0.00 | 0.00 | 0.00 | 78 | 1019.2 |
| 20260901224557 | 19 | 0 | 1.6 | 8.0 | 0.00 | 0.00 | 0.00 | 77 | 1018.9 |
| 20260901223051 | 19 | 144 | 1.6 | 8.0 | 0.00 | 0.00 | 0.00 | 75 | 1018.8 |
| 20260901221615 | 20 | 167 | 3.2 | 11.3 | 0.00 | 0.00 | 0.00 | 73 | 1018.8 |
| 20260901220120 | 20 | 157 | 4.8 | 11.3 | 0.00 | 0.00 | 0.00 | 72 | 1018.7 |
| 20260901214553 | 20 | 177 | 3.2 | 11.3 | 0.00 | 0.00 | 0.00 | 74 | 1018.8 |
| 20260901213115 | 20 | 160 | 1.6 | 11.3 | 0.00 | 0.00 | 0.00 | 73 | 1018.7 |
| 20260901211552 | 21 | 209 | 3.2 | 9.7 | 0.00 | 0.00 | 0.00 | 69 | 1018.4 |
| 20260901210059 | 21 | 115 | 3.2 | 9.7 | 0.00 | 0.00 | 0.00 | 69 | 1018.4 |
| 20260901204558 | 20 | 161 | 1.6 | 9.7 | 0.00 | 0.00 | 0.00 | 71 | 1018.4 |
| 20260901203100 | 20 | 138 | 3.2 | 12.9 | 0.00 | 0.00 | 0.00 | 71 | 1018.1 |
| 20260901201600 | 20 | 141 | 4.8 | 14.5 | 0.00 | 0.00 | 0.00 | 69 | 1018.2 |
| 20260901200057 | 21 | 180 | 3.2 | 12.9 | 0.00 | 0.00 | 0.00 | 67 | 1018.3 |
| 20260901194556 | 21 | 0 | 3.2 | 12.9 | 0.00 | 0.00 | 0.00 | 66 | 1018.2 |
| 20260901193100 | 21 | 128 | 4.8 | 12.9 | 0.00 | 0.00 | 0.00 | 64 | 1018.3 |
| 20260901191614 | 21 | 160 | 3.2 | 9.7 | 0.00 | 0.00 | 0.00 | 60 | 1018.3 |
| 20260901190059 | 21 | 115 | 4.8 | 14.5 | 0.00 | 0.00 | 0.00 | 58 | 1018.3 |
| 20260901184557 | 22 | 171 | 4.8 | 14.5 | 0.00 | 0.00 | 0.00 | 56 | 1018.2 |
| 20260901183100 | 22 | 160 | 3.2 | 11.3 | 0.00 | 0.00 | 0.00 | 55 | 1018.2 |
| 20260901181552 | 21 | 0 | 3.2 | 9.7 | 0.00 | 0.00 | 0.00 | 56 | 1018.3 |
| 20260901174559 | 22 | 79 | 3.2 | 8.0 | 0.00 | 0.00 | 0.00 | 55 | 1018.0 |
| 20260901173054 | 21 | 123 | 1.6 | 12.9 | 0.00 | 0.00 | 0.00 | 55 | 1018.0 |
| 20260901171559 | 21 | 132 | 1.6 | 8.0 | 0.00 | 0.00 | 0.00 | 58 | 1017.9 |
| 20260901170101 | 20 | 172 | 3.2 | 11.3 | 0.00 | 0.00 | 0.00 | 56 | 1018.0 |
| 20260901164558 | 20 | 113 | 3.2 | 11.3 | 0.00 | 0.00 | 0.00 | 60 | 1018.0 |
| 20260901163056 | 20 | 103 | 3.2 | 6.4 | 0.00 | 0.00 | 0.00 | 62 | 1018.2 |
| 20260901161553 | 19 | 0 | 0.0 | 4.8 | 0.00 | 0.00 | 0.00 | 63 | 1018.2 |
| 20260901160103 | 19 | 71 | 1.6 | 8.0 | 0.00 | 0.00 | 0.00 | 65 | 1018.3 |
| 20260901154557 | 18 | 88 | 3.2 | 12.9 | 0.00 | 0.00 | 0.00 | 65 | 1018.4 |
| 20260901153107 | 18 | 360 | 1.6 | 9.7 | 0.00 | 0.00 | 0.00 | 66 | 1018.5 |
| 20260901151559 | 18 | 96 | 4.8 | 12.9 | 0.00 | 0.00 | 0.00 | 68 | 1018.3 |
| 20260901150058 | 17 | 340 | 1.6 | 12.9 | 0.00 | 0.00 | 0.00 | 69 | 1018.1 |
| 20260901144600 | 17 | 30 | 1.6 | 12.9 | 0.00 | 0.00 | 0.00 | 70 | 1018.3 |
| 20260901143055 | 17 | 61 | 1.6 | 8.0 | 0.00 | 0.00 | 0.00 | 70 | 1018.1 |
| 20260901141603 | 17 | 81 | 1.6 | 4.8 | 0.00 | 0.00 | 0.00 | 70 | 1018.2 |
| 20260901140059 | 16 | 0 | 1.6 | 6.4 | 0.00 | 0.00 | 0.00 | 70 | 1018.5 |
| 20260901134608 | 16 | 355 | 1.6 | 4.8 | 0.00 | 0.00 | 0.00 | 73 | 1018.8 |
| 20260901133051 | 16 | 26 | 0.0 | 4.8 | 0.00 | 0.00 | 0.00 | 74 | 1018.9 |
| 20260901131604 | 16 | 0 | 0.0 | 3.2 | 0.00 | 0.00 | 0.00 | 73 | 1018.6 |
| 20260901130057 | 16 | 0 | 0.0 | 4.8 | 0.00 | 0.00 | 0.00 | 74 | 1018.6 |
| 20260901124553 | 16 | 0 | 0.0 | 3.2 | 0.00 | 0.00 | 0.00 | 75 | 1018.6 |
| 20260901123107 | 16 | 0 | 0.0 | 4.8 | 0.00 | 0.00 | 0.00 | 75 | 1018.7 |
| 20260901121601 | 16 | 21 | 1.6 | 8.0 | 0.00 | 0.00 | 0.00 | 74 | 1018.7 |
| 20260901120058 | 16 | 0 | 0.0 | 4.8 | 0.00 | 0.00 | 0.00 | 73 | 1018.9 |
| 20260901114600 | 16 | 0 | 1.6 | 4.8 | 0.00 | 0.00 | 0.00 | 74 | 1018.7 |
| 20260901113053 | 16 | 0 | 0.0 | 4.8 | 0.00 | 0.00 | 0.00 | 75 | 1018.4 |
| 20260901111553 | 16 | 57 | 0.0 | 4.8 | 0.00 | 0.00 | 0.00 | 74 | 1018.1 |
| 20260901110109 | 16 | 0 | 3.2 | 8.0 | 0.00 | 0.00 | 0.00 | 73 | 1018.0 |
| 20260901104606 | 16 | 360 | 0.0 | 14.5 | 0.00 | 0.00 | 0.00 | 73 | 1017.8 |
| 20260901103058 | 16 | 0 | 0.0 | 6.4 | 0.00 | 0.00 | 0.00 | 76 | 1017.8 |